Skip Page Navigation
NASA JPL Caltech
NASA Logo - Jet Propulsion Laboratory + View the NASA Portal
+ Center for Near-Earth Object Studies
JPL Home Earth Solar System Stars & Galaxies Technology
JPL Solar System Dynamics
BODIES ORBITS EPHEMERIDES TOOLS PHYSICAL DATA DISCOVERY FAQ SITE MAP
IMPORTANT: The SSD Announcement email list is now available. Major changes are coming in the near future, including possible hostname and/or URL changes. To be notified of such changes, subscribe to this email list.

Please visit this page for more details.


JPL Small-Body Database Browser
Search: [ help ]  
71586 (2000 DV66)
Classification: Main-belt Asteroid          SPK-ID: 2071586
Ephemeris | Orbit Diagram | Orbital Elements | Mission Design | Physical Parameters | Discovery Circumstances | Close-Approach Data ]

[ show orbit diagram ]
Orbital Elements at Epoch 2458600.5 (2019-Apr-27.0) TDB
Reference: JPL 23 (heliocentric ecliptic J2000)
 Element Value Uncertainty (1-sigma)   Units 
e .1761303546835076 3.5294e-08  
a 3.104498422199102 1.8693e-08 au
q 2.557702013982785 1.1346e-07 au
i .2491366338027052 4.8533e-06 deg
node 301.0016840862976 0.001011 deg
peri 104.7048834737998 0.0010111 deg
M 275.2055727576569 1.5506e-05 deg
tp 2459071.098352358139
(2020-Aug-09.59835236)
8.7441e-05 TDB
period 1997.954492513284
5.47
1.8045e-05
4.94e-08
d
yr
n .1801842841511098 1.6274e-09 deg/d
Q 3.65129483041542 2.1985e-08 au
  Orbit Determination Parameters
   # obs. used (total)      868  
   data-arc span      9834 days (26.92 yr)  
   first obs. used      1992-10-01  
   last obs. used      2019-09-04  
   planetary ephem.      DE431  
   SB-pert. ephem.      SB431-N16  
   condition code      0  
   norm. resid. RMS      .5608  
   source      ORB  
   producer      Otto Matic  
   solution date      2019-Sep-24 02:40:22  

Additional Information
 Earth MOID = 1.56668 au 
 Jupiter MOID = 1.7459 au 
 T_jup = 3.197 
[ show covariance matrix ]

Ephemeris | Orbit Diagram | Orbital Elements | Mission Design | Physical Parameters | Discovery Circumstances | Close-Approach Data ]

Physical Parameter Table
Parameter Symbol Value Units Sigma Reference Notes
absolute magnitude H 14.7   n/a MPO453123  
diameter diameter 5.755 km 0.273 urn:nasa:pds:neowise_diameters_albedos::2.0[mainbelt] (http://adsabs.harvard.edu/abs/2011ApJ...741...68M)  
geometric albedo albedo 0.085   0.013 urn:nasa:pds:neowise_diameters_albedos::2.0[mainbelt] (http://adsabs.harvard.edu/abs/2011ApJ...741...68M)  

71586 (2000 DV66)          Discovered 2000-Feb-29 by LINEAR at Socorro
Reference: 20031109/Numbers.arcLast Updated: 2004-04-19

[ show close-approach data ]
Alternate Designations
 2000 DV66 = 1998 YJ 
Ephemeris | Orbit Diagram | Orbital Elements | Mission Design | Physical Parameters | Discovery Circumstances | Close-Approach Data ]
ABOUT SSD CREDITS/AWARDS PRIVACY/COPYRIGHT GLOSSARY LINKS
FirstGov 2019-Oct-17 04:31 UT
(server date/time)  
NASA Home Page
Site Manager:   Ryan S. Park
Webmaster  Alan B. Chamberlin